星链-32243 (STARLINK-32243)

导读

STARLINK-32243是美国SpaceX公司于2024年8月4日发射的第二代星链卫星,属于星链(Starlink)全球卫星互联网星座的组成部分。它运行在近地轨道,配备增强型相控阵天线与激光星间链路,可提供高速低延迟宽带服务,助力拓展全球偏远区域网络覆盖,支撑星链星座向第二代全面升级,具备更强通信容量与自主轨道调控能力,推进星座持续扩容与服务优化。

Basic Information
目录编号:
60367
目录名称:
STARLINK-32243
国际标识:
2024-138N
轨道中心:
EARTH
卫星名称:
星链-32243 (STARLINK-32243)
卫星全名:
星链-32243 (STARLINK-32243)
卫星状态:
在轨 (已飞行761 天)
发射日期:
2024-08-04 UTC
国别 :
美国 (US)
星等 :
--
Orbit Information
数据来源 国际轨道数据 AOE轨道数据
星历时间 2026-09-03T12:00:33+0800
1天前
查看轨道信息
2026-08-29T23:00:00+0800
5天前
查看轨道信息
半长轴 6848.865km 6848.84km
偏心率 0.0001217 0.0001306
轨道倾角 53.160° 53.157°
近地点辐角 85.246° 73.959°
升交点赤经 204.284° 225.434°
平近点角 274.868° 66.747°
近地点 469.894km 469.808km
远地点 471.562km 471.598km
周期 94.013分钟 94.012分钟
每日圈数 15.317043 15.317126
Detailed Information
卫星平台:
Starlink v2.0 mini
运营商:
太空探索技术公司
运营商所在国:
美国
制造商(研发单位):
太空探索技术公司
制造商所在国:
美国
使用方式:
暂无
Satellite Introduction
星链(Starlink)计划是由太空探索技术公司(SpaceX)提出的一个巨型低轨卫星互联网星座项目,计划在2019年至2024年间在太空搭建由约1.2万颗卫星组成的“星链”网络,其中1584颗将部署在地球上空550千米处的近地轨道,并从2020年开始工作。该卫星仍在工作。
2D Orbit Map
3D Orbit Map
Orbit Altitude Analysis Chart
Orbit Inclination Analysis Chart
Orbit Comprehensive Analysis Chart
View Comprehensive Chart
Conjunction Data List
Event ID Objects TCA Miss Dist (km) Collision Risk Probability Collision Risk Index (CRI) Action
CDM_260904-232304-791606-036721
2026-09-04T
23:23:23+0000
1.975 km
极远距离
1.61861E-6 低风险 0.39
CDM_260903-143406-036706-904521
2026-09-03T
14:34:23+0000
2.873 km
极远距离
1.253573E-6 低风险 0.37